Location: *
(33.3200°N, 8.3381°W)
Time: 00:10:42
(UTC+00:00)

SL-8 Rocket - Pass Details

Date: 09 April 2020
Orbit: 957 x 991 km, 82.9° (Epoch: 06 June)

Event Time Altitude Azimuth Distance (km) Brightness Sun altitude
Rises 21:10:38 0° 355° (N) 3,706 7.5 -26.4°
Reaches altitude 10° 21:13:10 10° 356° (N) 2,756 6.8 -26.8°
Maximum altitude 21:19:31 81° 84° (E) 1,005 3.9 -27.9°
Enters shadow 21:19:59 75° 138° (SE) 1,023 3.8 -28.0°
